�������l�o���
Date,Time,MP-1(��Sv/h),MP-2(��Sv/h),MP-3(��Sv/h),MP-4(��Sv/h),MP-5(��Sv/h),MP-6(��Sv/h),MP-7(��Sv/h),MP-8(��Sv/h),����,����(m/s),���J
2019/01/08,00:00,0.785,1.178,0.824,1.507,1.073,0.454,0.800,0.758,���쐼,5.0,��
2019/01/08,00:10,0.786,1.179,0.827,1.509,1.071,0.453,0.800,0.759,���쐼,4.4,��
2019/01/08,00:20,0.787,1.178,0.826,1.508,1.070,0.452,0.799,0.758,��,4.1,��
2019/01/08,00:30,0.789,1.178,0.827,1.506,1.071,0.451,0.799,0.758,���k��,4.2,��
2019/01/08,00:40,0.786,1.177,0.826,1.504,1.072,0.452,0.799,0.758,���k��,4.1,��
2019/01/08,00:50,0.786,1.178,0.826,1.508,1.069,0.452,0.799,0.758,���k��,3.9,��
2019/01/08,01:00,0.786,1.176,0.827,1.509,1.073,0.451,0.798,0.758,���k��,4.7,��
2019/01/08,01:10,0.787,1.177,0.824,1.506,1.073,0.451,0.799,0.758,���k��,5.2,��
2019/01/08,01:20,0.788,1.178,0.826,1.506,1.071,0.452,0.799,0.757,���k��,5.3,��
2019/01/08,01:30,0.786,1.179,0.825,1.507,1.069,0.451,0.799,0.757,��,5.0,��
2019/01/08,01:40,0.786,1.179,0.827,1.508,1.070,0.451,0.799,0.757,��,4.7,��
2019/01/08,01:50,0.785,1.176,0.826,1.509,1.071,0.451,0.801,0.757,���k��,5.0,��
2019/01/08,02:00,0.784,1.178,0.828,1.508,1.071,0.452,0.801,0.757,���k��,6.6,��
2019/01/08,02:10,0.785,1.178,0.828,1.507,1.070,0.450,0.800,0.757,�k��,7.0,��
2019/01/08,02:20,0.787,1.179,0.828,1.508,1.071,0.452,0.800,0.758,���k��,7.0,��
2019/01/08,02:30,0.786,1.178,0.828,1.507,1.071,0.453,0.799,0.758,���k��,7.7,��
2019/01/08,02:40,0.787,1.181,0.826,1.508,1.071,0.452,0.800,0.759,���k��,7.4,��
2019/01/08,02:50,0.787,1.178,0.827,1.505,1.070,0.451,0.799,0.757,���k��,6.2,��
2019/01/08,03:00,0.788,1.177,0.828,1.509,1.071,0.452,0.800,0.758,�k��,6.4,��
2019/01/08,03:10,0.786,1.177,0.826,1.506,1.071,0.451,0.799,0.760,�k�k��,6.4,��
2019/01/08,03:20,0.787,1.179,0.828,1.508,1.072,0.452,0.800,0.759,�k��,5.7,��
2019/01/08,03:30,0.786,1.176,0.828,1.507,1.072,0.450,0.799,0.759,�k�k��,5.9,��
2019/01/08,03:40,0.787,1.178,0.827,1.506,1.072,0.452,0.801,0.758,�k�k��,4.3,��
2019/01/08,03:50,0.785,1.176,0.826,1.506,1.073,0.452,0.799,0.759,�k��,2.3,��
2019/01/08,04:00,0.786,1.178,0.826,1.509,1.072,0.454,0.800,0.758,�k��,2.2,��
2019/01/08,04:10,0.786,1.179,0.828,1.506,1.072,0.452,0.800,0.760,�k��,3.0,��
2019/01/08,04:20,0.788,1.177,0.825,1.505,1.071,0.451,0.799,0.758,���k��,2.6,��
2019/01/08,04:30,0.789,1.178,0.827,1.508,1.072,0.453,0.798,0.759,���쐼,1.9,��
2019/01/08,04:40,0.786,1.178,0.827,1.510,1.072,0.451,0.799,0.760,���쐼,2.9,��
2019/01/08,04:50,0.787,1.177,0.828,1.504,1.071,0.453,0.799,0.757,��,1.7,��
2019/01/08,05:00,0.786,1.178,0.825,1.507,1.070,0.452,0.799,0.760,��쐼,2.0,��
2019/01/08,05:10,0.785,1.177,0.827,1.508,1.071,0.449,0.798,0.758,�쐼,1.4,��
2019/01/08,05:20,0.786,1.177,0.826,1.508,1.071,0.450,0.798,0.757,���k��,2.6,��
2019/01/08,05:30,0.786,1.176,0.825,1.506,1.071,0.451,0.799,0.759,��,2.0,��
2019/01/08,05:40,0.787,1.179,0.826,1.505,1.070,0.452,0.798,0.758,��,1.4,��
2019/01/08,05:50,0.786,1.176,0.826,1.507,1.071,0.451,0.799,0.758,��,1.5,��
2019/01/08,06:00,0.787,1.176,0.827,1.508,1.070,0.452,0.797,0.759,��,3.4,��
2019/01/08,06:10,0.785,1.176,0.826,1.506,1.072,0.451,0.799,0.759,���쐼,3.2,��
2019/01/08,06:20,0.787,1.176,0.826,1.505,1.069,0.452,0.798,0.757,���쐼,4.5,��
2019/01/08,06:30,0.786,1.178,0.826,1.504,1.069,0.449,0.799,0.758,���쐼,3.9,��
2019/01/08,06:40,0.786,1.177,0.827,1.503,1.071,0.453,0.799,0.758,���쐼,5.0,��
2019/01/08,06:50,0.787,1.176,0.827,1.505,1.070,0.452,0.799,0.759,��,6.1,��
2019/01/08,07:00,0.787,1.178,0.827,1.505,1.070,0.453,0.799,0.758,��,4.0,��
2019/01/08,07:10,0.786,1.175,0.825,1.506,1.071,0.451,0.800,0.757,��,3.9,��
2019/01/08,07:20,0.787,1.177,0.826,1.507,1.072,0.453,0.800,0.758,���k��,5.7,��
2019/01/08,07:30,0.788,1.175,0.825,1.506,1.068,0.451,0.798,0.758,��,4.7,��
2019/01/08,07:40,0.787,1.176,0.825,1.507,1.071,0.451,0.798,0.758,��,3.5,��
2019/01/08,07:50,0.787,1.177,0.826,1.508,1.073,0.451,0.800,0.758,���쐼,5.2,��
2019/01/08,08:00,0.788,1.177,0.826,1.507,1.073,0.452,0.800,0.759,���쐼,6.0,��
2019/01/08,08:10,0.787,1.175,0.826,1.504,1.072,0.450,0.800,0.758,���쐼,6.0,��
2019/01/08,08:20,0.787,1.175,0.825,1.505,1.069,0.453,0.802,0.760,���쐼,5.9,��
2019/01/08,08:30,0.787,1.172,0.826,1.505,1.074,0.452,0.800,0.760,��,6.2,��
2019/01/08,08:40,0.788,1.173,0.828,1.507,1.073,0.453,0.800,0.760,��,6.1,��
2019/01/08,08:50,0.790,1.174,0.824,1.507,1.070,0.453,0.801,0.759,��,5.6,��
2019/01/08,09:00,0.788,1.178,0.826,1.505,1.071,0.452,0.801,0.758,��,4.4,��
2019/01/08,09:10,0.789,1.175,0.826,1.506,1.070,0.451,0.799,0.759,��,3.2,��
2019/01/08,09:20,0.789,1.172,0.825,1.507,1.072,0.453,0.799,0.759,���k��,2.9,��
2019/01/08,09:30,0.790,1.175,0.825,1.500,1.072,0.452,0.800,0.761,���쐼,2.5,��
2019/01/08,09:40,0.789,1.175,0.824,1.502,1.072,0.452,0.800,0.758,���쐼,1.9,��
2019/01/08,09:50,0.791,1.174,0.828,1.502,1.073,0.453,0.802,0.759,�쐼,2.0,��
2019/01/08,10:00,0.790,1.171,0.827,1.503,1.074,0.452,0.801,0.759,��쐼,1.1,��
2019/01/08,10:10,0.791,1.173,0.827,1.500,1.075,0.455,0.800,0.759,�쐼,3.4,��
2019/01/08,10:20,0.789,1.171,0.829,1.502,1.074,0.454,0.804,0.761,�쐼,5.0,��
2019/01/08,10:30,0.789,1.171,0.827,1.504,1.074,0.454,0.801,0.760,�쐼,5.8,��
2019/01/08,10:40,0.790,1.174,0.829,1.505,1.077,0.454,0.800,0.760,�쐼,4.7,��
2019/01/08,10:50,0.791,1.171,0.829,1.505,1.075,0.453,0.799,0.762,�쐼,5.1,��
2019/01/08,11:00,0.793,1.176,0.829,1.502,1.075,0.455,0.799,0.760,���쐼,6.8,��
2019/01/08,11:10,0.792,1.176,0.829,1.505,1.076,0.454,0.799,0.757,�쐼,6.1,��
2019/01/08,11:20,0.792,1.175,0.829,1.503,1.075,0.454,0.800,0.760,�쐼,6.6,��
2019/01/08,11:30,0.791,1.174,0.828,1.504,1.077,0.455,0.801,0.760,���쐼,7.6,��
2019/01/08,11:40,0.792,1.171,0.830,1.505,1.076,0.454,0.800,0.760,���쐼,6.3,��
2019/01/08,11:50,0.794,1.172,0.831,1.503,1.077,0.455,0.800,0.763,���쐼,6.1,��
2019/01/08,12:00,0.793,1.176,0.830,1.507,1.074,0.456,0.800,0.761,���쐼,5.7,��
2019/01/08,12:10,0.792,1.171,0.829,1.509,1.078,0.455,0.801,0.760,���쐼,6.5,��
2019/01/08,12:20,0.793,1.174,0.833,1.509,1.077,0.455,0.800,0.762,���쐼,9.1,��
2019/01/08,12:30,0.793,1.173,0.831,1.510,1.076,0.456,0.801,0.761,���쐼,8.1,��
2019/01/08,12:40,0.791,1.172,0.831,1.512,1.076,0.458,0.801,0.761,���쐼,6.8,��
2019/01/08,12:50,0.794,1.174,0.831,1.510,1.076,0.458,0.801,0.761,���쐼,6.8,��
2019/01/08,13:00,0.794,1.169,0.831,1.511,1.074,0.455,0.801,0.762,��,7.1,��
2019/01/08,13:10,0.792,1.174,0.831,1.511,1.076,0.458,0.800,0.760,���쐼,6.6,��
2019/01/08,13:20,0.791,1.170,0.829,1.513,1.077,0.457,0.801,0.761,��,6.9,��
2019/01/08,13:30,0.792,1.172,0.830,1.510,1.077,0.457,0.800,0.762,���쐼,6.1,��
2019/01/08,13:40,0.790,1.170,0.831,1.507,1.080,0.456,0.802,0.759,���쐼,7.4,��
2019/01/08,13:50,0.791,1.170,0.830,1.511,1.079,0.457,0.804,0.758,���쐼,7.8,��
2019/01/08,14:00,0.791,1.169,0.826,1.511,1.078,0.457,0.804,0.759,���쐼,6.7,��
2019/01/08,14:10,0.794,1.169,0.831,1.512,1.076,0.458,0.804,0.761,��,6.1,��
2019/01/08,14:20,0.791,1.171,0.829,1.512,1.077,0.457,0.802,0.759,���k��,6.8,��
2019/01/08,14:30,0.793,1.176,0.831,1.511,1.079,0.456,0.804,0.760,���k��,5.9,��
2019/01/08,14:40,0.792,1.171,0.829,1.510,1.080,0.457,0.802,0.762,���k��,7.1,��
2019/01/08,14:50,0.790,1.171,0.830,1.510,1.077,0.457,0.802,0.761,���k��,5.6,��
2019/01/08,15:00,0.790,1.173,0.829,1.511,1.079,0.459,0.803,0.762,���k��,5.2,��
2019/01/08,15:10,0.790,1.175,0.830,1.509,1.078,0.455,0.800,0.762,�k��,5.0,��
2019/01/08,15:20,0.790,1.175,0.830,1.510,1.078,0.456,0.801,0.760,�k��,7.0,��
2019/01/08,15:30,0.791,1.176,0.830,1.509,1.077,0.457,0.802,0.762,�k��,6.9,��
2019/01/08,15:40,0.793,1.176,0.827,1.513,1.077,0.457,0.802,0.762,���k��,6.0,��
2019/01/08,15:50,0.792,1.175,0.828,1.511,1.079,0.455,0.801,0.762,�k��,7.2,��
2019/01/08,16:00,0.793,1.178,0.827,1.511,1.076,0.456,0.801,0.763,�k��,6.5,��
2019/01/08,16:10,0.790,1.179,0.832,1.512,1.075,0.456,0.801,0.762,�k��,6.8,��
2019/01/08,16:20,0.791,1.178,0.831,1.511,1.078,0.455,0.802,0.762,�k,6.8,��
2019/01/08,16:30,0.790,1.178,0.829,1.512,1.077,0.454,0.802,0.761,�k�k��,5.8,��
2019/01/08,16:40,0.791,1.177,0.829,1.510,1.077,0.456,0.802,0.761,�k,6.0,��
2019/01/08,16:50,0.790,1.179,0.828,1.511,1.077,0.456,0.800,0.761,�k,5.1,��
2019/01/08,17:00,0.791,1.178,0.827,1.511,1.077,0.455,0.801,0.761,�k,5.4,��
2019/01/08,17:10,0.791,1.179,0.830,1.509,1.075,0.453,0.804,0.761,�k,5.7,��
2019/01/08,17:20,0.792,1.179,0.830,1.510,1.076,0.454,0.802,0.759,�k,6.4,��
2019/01/08,17:30,0.791,1.179,0.829,1.511,1.076,0.454,0.802,0.760,�k�k��,7.6,��
2019/01/08,17:40,0.792,1.180,0.829,1.511,1.077,0.455,0.803,0.761,�k�k��,7.2,��
2019/01/08,17:50,0.790,1.179,0.827,1.510,1.075,0.455,0.804,0.760,�k�k��,7.5,��
2019/01/08,18:00,0.789,1.178,0.830,1.510,1.078,0.453,0.802,0.761,�k�k��,5.7,��
2019/01/08,18:10,0.792,1.178,0.829,1.508,1.078,0.453,0.801,0.760,�k,4.0,��
2019/01/08,18:20,0.792,1.180,0.830,1.510,1.076,0.454,0.803,0.762,�k,4.4,�L
2019/01/08,18:30,0.790,1.181,0.829,1.511,1.079,0.454,0.803,0.761,�k�k��,5.7,�L
2019/01/08,18:40,0.791,1.182,0.829,1.508,1.076,0.455,0.802,0.761,�k�k��,5.9,��
2019/01/08,18:50,0.791,1.181,0.825,1.511,1.078,0.453,0.802,0.761,�k�k��,6.1,��
2019/01/08,19:00,0.790,1.180,0.824,1.509,1.074,0.454,0.804,0.761,�k�k��,6.5,��
2019/01/08,19:10,0.790,1.181,0.829,1.513,1.076,0.453,0.802,0.761,�k,5.0,��
2019/01/08,19:20,0.790,1.181,0.828,1.508,1.075,0.454,0.802,0.760,�k,6.2,��
2019/01/08,19:30,0.791,1.182,0.828,1.509,1.077,0.454,0.801,0.761,�k,6.1,��
2019/01/08,19:40,0.788,1.183,0.829,1.511,1.075,0.453,0.803,0.759,�k,5.8,�L
2019/01/08,19:50,0.789,1.181,0.830,1.510,1.076,0.454,0.802,0.760,�k,5.3,�L
2019/01/08,20:00,0.791,1.182,0.828,1.515,1.077,0.454,0.804,0.759,�k,5.3,�L
2019/01/08,20:10,0.791,1.183,0.826,1.509,1.078,0.455,0.806,0.761,�k,6.1,�L
2019/01/08,20:20,0.791,1.179,0.827,1.515,1.077,0.454,0.802,0.759,�k�k��,6.2,�L
2019/01/08,20:30,0.790,1.182,0.826,1.512,1.078,0.455,0.802,0.759,�k�k��,6.0,�L
2019/01/08,20:40,0.791,1.182,0.829,1.511,1.078,0.455,0.803,0.759,�k�k��,5.3,�L
2019/01/08,20:50,0.792,1.183,0.829,1.511,1.078,0.454,0.802,0.759,�k�k��,4.3,�L
2019/01/08,21:00,0.794,1.182,0.826,1.511,1.077,0.456,0.803,0.761,�k��,3.2,�L
2019/01/08,21:10,0.791,1.182,0.827,1.509,1.078,0.454,0.802,0.759,�k�k��,2.6,��
2019/01/08,21:20,0.791,1.182,0.825,1.511,1.076,0.455,0.803,0.761,�k,3.4,��
2019/01/08,21:30,0.789,1.181,0.828,1.511,1.075,0.454,0.803,0.760,�k,3.0,��
2019/01/08,21:40,0.789,1.179,0.828,1.509,1.073,0.455,0.801,0.761,�k�k��,2.6,��
2019/01/08,21:50,0.789,1.181,0.826,1.508,1.076,0.454,0.802,0.760,�k�k��,3.1,��
2019/01/08,22:00,0.789,1.181,0.826,1.509,1.076,0.454,0.801,0.760,�k�k��,3.7,��
2019/01/08,22:10,0.790,1.179,0.826,1.508,1.076,0.453,0.799,0.760,�k�k��,4.8,��
2019/01/08,22:20,0.788,1.178,0.825,1.510,1.073,0.454,0.801,0.757,�k�k��,5.1,��
2019/01/08,22:30,0.788,1.176,0.825,1.510,1.076,0.452,0.800,0.759,�k�k��,5.1,��
2019/01/08,22:40,0.789,1.178,0.827,1.508,1.074,0.452,0.800,0.760,�k�k��,5.5,��
2019/01/08,22:50,0.789,1.180,0.828,1.507,1.076,0.452,0.801,0.760,�k�k��,5.4,��
2019/01/08,23:00,0.788,1.176,0.825,1.507,1.073,0.453,0.799,0.759,�k�k��,5.3,��
2019/01/08,23:10,0.787,1.177,0.824,1.507,1.073,0.452,0.801,0.759,�k�k��,5.4,��
2019/01/08,23:20,0.787,1.178,0.827,1.508,1.075,0.453,0.800,0.759,�k�k��,5.9,��
2019/01/08,23:30,0.789,1.178,0.827,1.507,1.073,0.452,0.800,0.759,�k�k��,6.7,��
2019/01/08,23:40,0.789,1.178,0.826,1.511,1.073,0.453,0.800,0.758,�k�k��,7.6,��
2019/01/08,23:50,0.788,1.178,0.827,1.508,1.077,0.453,0.802,0.759,�k�k��,7.4,��
